Chillicothe, MO

10:53 AM CDT on May 24, 2017 (GMT -0500)
Chillicothe

Weather History for KCDJ - November, 2012

Change the Weather History Date:

Thursday, November 8, 2012

  Actual Average (KIRK) Record (KIRK)
Temperature  
Mean Temperature 50 °F -  
Max Temperature 63 °F 53 °F 78 °F (1980)
Min Temperature 36 °F 33 °F -4 °F (1991)
Degree Days  
Heating Degree Days 16    
Moisture  
Dew Point 35 °F    
Average Humidity 62    
Maximum Humidity 82    
Minimum Humidity 38    
Precipitation  
Precipitation 0.00 in - - ()
Sea Level Pressure  
Sea Level Pressure 30.06 in    
Wind  
Wind Speed 6 mph (SE)    
Max Wind Speed 13 mph    
Max Gust Speed 18 mph    
Averages and records for this station are not official NWS values.
T = Trace of Precipitation, MM = Missing Value Source: NWS Daily Summary

Daily Weather History Graph

Daily Weather History Graph

Search for Another Location

Airport or City:

Trip Planner

Search our weather history database for the weather conditions in past years. The results will help you decide how hot, cold, wet, or windy it might be!

Date:

Astronomy

Nov. 08, 2012 Rise Set
Actual Time 6:51 AM CST 5:04 PM CST
Civil Twilight 6:23 AM CST 5:32 PM CST
Nautical Twilight 5:50 AM CST 6:04 PM CST
Astronomical Twilight 5:19 AM CST 6:36 PM CST
Moon 12:48 AM CST (11/8) 1:44 PM CST (11/8)
Length of Visible Light 11h 09m
Length of Day
10h 12m
Waning Crescent, 32% of the Moon is Illuminated
Nov 8
Waning Crescent
Nov 13
New
Nov 20
First Quarter
Nov 28
Full
Dec 6
Last Quarter

Hourly Weather History & Observations

Time (CST) Temp. Windchill Dew Point Humidity Pressure Visibility Wind Dir Wind Speed Gust Speed Precip Events Conditions
12:52 AM 37.9 °F 35.5 °F 30.9 °F 76% 30.18 in - SSE 3.5 mph - N/A   Unknown
1:52 AM 36.0 °F 33.3 °F 30.9 °F 82% 30.18 in - SE 3.5 mph - N/A   Unknown
2:52 AM 37.0 °F 33.3 °F 30.9 °F 79% 30.17 in - SE 4.6 mph - N/A   Unknown
3:52 AM 36.0 °F 32.1 °F 30.9 °F 82% 30.15 in - SE 4.6 mph - N/A   Unknown
4:52 AM 36.0 °F 32.1 °F 30.0 °F 79% 30.15 in - SSE 4.6 mph - N/A   Unknown
5:52 AM 36.0 °F 30.3 °F 30.9 °F 82% 30.15 in - SSE 6.9 mph - N/A   Unknown
6:52 AM 36.0 °F 31.1 °F 30.9 °F 82% 30.14 in - SE 5.8 mph - N/A   Unknown
7:52 AM 37.9 °F 32.7 °F 32.0 °F 79% 30.15 in - SSE 6.9 mph - N/A   Unknown
8:52 AM 42.1 °F 38.4 °F 34.0 °F 73% 30.15 in - SSE 5.8 mph - N/A   Unknown
9:52 AM 46.9 °F - 36.0 °F 66% 30.13 in - SSE 6.9 mph - N/A   Unknown
10:52 AM - - - N/A% 30.09 in - North - - N/A   Unknown
11:52 AM 57.0 °F - 37.0 °F 47% 30.06 in - SE 10.4 mph - N/A   Unknown
12:52 PM 61.0 °F - 37.0 °F 41% 30.01 in - SE 10.4 mph - N/A   Unknown
1:52 PM 63.0 °F - 37.9 °F 40% 29.98 in - SSE 10.4 mph - N/A   Unknown
2:52 PM 63.0 °F - 37.0 °F 38% 29.97 in - SSE 9.2 mph 18.4 mph N/A   Unknown
3:52 PM 62.1 °F - 37.9 °F 41% 29.97 in - SE 12.7 mph 17.3 mph N/A   Unknown
4:52 PM 59.0 °F - 39.0 °F 48% 29.96 in - ESE 9.2 mph - N/A   Unknown
5:52 PM 55.9 °F - 37.9 °F 51% 29.97 in - ESE 5.8 mph - N/A   Unknown
6:52 PM 55.0 °F - 37.9 °F 53% 29.98 in - SE 9.2 mph - N/A   Unknown
7:52 PM 54.0 °F - 37.0 °F 53% 29.98 in - SE 8.1 mph - N/A   Unknown
8:52 PM 53.1 °F - 37.0 °F 55% 29.99 in - SE 5.8 mph - N/A   Unknown
9:52 PM 51.1 °F - 37.0 °F 59% 29.97 in - SSE 6.9 mph - N/A   Unknown
10:52 PM 51.1 °F - 37.0 °F 59% 29.96 in - SSE 6.9 mph - N/A   Unknown
11:52 PM 50.0 °F - 37.0 °F 61% 29.96 in - SSE 5.8 mph - N/A   Unknown